Santa Mae Laura — CUQJ — position and weather

sailwx.info

Track history (hours):
 
Tides and Currents Weather Stations Pressure Air Temp Water Temp Dewpoint Dewpoint Depression Visibility Wind Speed Wind Dir Waves Ship Positions

Santa Mae Laura

Last reported at 2015-Apr-01 09:21 UTC. Time now 2015-Apr-01 13:14 UTC.
Position N 43°49' W 005°27'.

Length 24 m.

Type: Fishing. MMSI: 263432000.

Date/timePositionNaut miles runAvg speedWind from/ knotsBaromVisibWave heightAir tempDewpointWater temp
2015-Apr-01 09:21N 43°49' W 005°27'9 2.9
2015-Apr-01 06:18N 43°50' W 005°40'6 3.4
2015-Apr-01 04:30N 43°46' W 005°47'  
2015-Mar-29 20:30N 43°42' W 005°50'7 6.8
2015-Mar-29 19:27N 43°43' W 005°40'7 7.8
2015-Mar-29 18:33N 43°43' W 005°31'7 7.2
2015-Mar-29 17:32N 43°43' W 005°20'7 4.9
2015-Mar-29 16:05N 43°44' W 005°11'5 0.9
2015-Mar-29 10:28N 43°49' W 005°13'7 5.5
2015-Mar-29 09:12N 43°50' W 005°22'14 2.9
2015-Mar-29 04:29N 43°48' W 005°41'9 7.5
2015-Mar-29 03:18N 43°42' W 005°51'5 0.1
2015-Mar-27 18:27N 43°39' W 005°55'  
Track history (hours):
 
Tides and Currents Weather Stations Pressure Air Temp Water Temp Dewpoint Dewpoint Depression Visibility Wind Speed Wind Dir Waves Ship Positions

Santa Mae Laura

Last reported at 2015-Apr-01 09:21 UTC. Time now 2015-Apr-01 13:14 UTC.
Position N 43°49' W 005°27'.

Length 24 m.

Type: Fishing. MMSI: 263432000.

Date/timePositionNaut miles runAvg speedWind from/ knotsBaromVisibWave heightAir tempDewpointWater temp
2015-Apr-01 09:21N 43°49' W 005°27'9 2.9
2015-Apr-01 06:18N 43°50' W 005°40'6 3.4
2015-Apr-01 04:30N 43°46' W 005°47'  
2015-Mar-29 20:30N 43°42' W 005°50'7 6.8
2015-Mar-29 19:27N 43°43' W 005°40'7 7.8
2015-Mar-29 18:33N 43°43' W 005°31'7 7.2
2015-Mar-29 17:32N 43°43' W 005°20'7 4.9
2015-Mar-29 16:05N 43°44' W 005°11'5 0.9
2015-Mar-29 10:28N 43°49' W 005°13'7 5.5
2015-Mar-29 09:12N 43°50' W 005°22'14 2.9
2015-Mar-29 04:29N 43°48' W 005°41'9 7.5
2015-Mar-29 03:18N 43°42' W 005°51'5 0.1
2015-Mar-27 18:27N 43°39' W 005°55'  

Dump ship's entire track history